Lid_Strength_Index
2 1 1 1 1 0 0 0 0 -0 -0 -0 -0 -0 -0 -0 -0 -0 -0 -0 1 0 0 1 1 0 1 1 1 1 2 2 4 3 1 0 0 0 -0 -1 -1 -1 -1
1 1 1 1 0 0 0 0 0 -0 -1 -0 -0 -0 -0 -0 -1 -0 0 -0 0 1 0 0 1 1 0 0 1 1 1 1 3 4 2 2 1 1 0 0 0 -0 -0
1 1 1 1 1 1 1 -0 -0 -1 -0 -0 -0 -0 -0 -0 -0 -0 -0 0 0 0 0 0 0 0 0 1 1 1 1 1 1 2 2 1 1 0 1 0 0 0 -0
1 1 2 1 0 0 0 -0 0 1 1 1 2 2 2 2 2 2 3 3 2 2 1 0 0 1 0 1 2 2 1 1 1 2 2 2 1 0 0 2 2 1 1
1 1 1 1 1 1 1 1 1 2 2 2 3 3 3 3 5 5 5 5 4 3 2 2 1 2 2 4 3 2 2 2 2 2 2 2 2 2 2 1 2 1 1
2 2 2 2 2 2 2 2 2 2 2 2 3 3 3 4 8 8 6 5 4 2 2 1 1 1 2 3 3 4 4 3 3 3 3 3 2 2 1 2 2 3 3
3 3 3 3 3 3 3 3 3 3 3 3 4 4 3 3 8 8 7 5 3 2 1 2 2 2 3 3 3 3 3 4 4 3 4 3 3 3 3 4 3 4 3
4 3 4 4 4 4 4 4 4 4 4 4 4 4 4 6 8 8 7 3 2 3 3 3 4 4 6 6 5 5 4 3 3 3 3 3 3 3 4 4 4 4 4
5 5 6 6 6 6 6 5 5 4 4 4 4 4 5 6 9 9 8 5 5 4 5 4 4 5 9 9 6 5 5 4 4 5 6 7 7 8 7 6 6 7 6
6 6 6 6 6 6 6 5 4 4 4 4 5 5 7 7 10 10 10 6 6 5 3 6 8 7 10 10 6 5 6 5 5 5 4 4 4 4 6 5 5 6 6
6 6 6 6 6 5 5 4 4 5 5 6 7 6 7 7 8 11 11 7 7 6 6 6 7 9 9 9 9 5 6 8 7 6 6 6 6 5 5 5 4 5 7
6 6 6 5 5 5 5 5 6 6 6 7 7 7 6 6 10 10 10 10 9 7 7 6 6 10 10 9 8 9 9 9 6 7 7 7 7 6 6 6 5 5 5
7 6 5 5 5 6 6 6 6 6 7 7 7 7 7 7 7 9 10 10 9 8 7 7 9 10 9 7 8 9 9 7 7 7 8 8 7 6 6 6 5 5 5
6 6 5 5 7 7 7 7 7 8 8 8 8 8 8 8 8 8 8 8 8 7 7 7 8 8 8 8 7 7 8 7 7 7 7 6 6 7 8 7 7 6 6
6 6 6 7 7 8 8 9 9 11 12 9 9 9 10 10 10 12 12 10 9 9 9 8 8 7 7 7 6 6 7 7 7 8 8 8 8 7 9 8 8 7 7
6 7 8 7 7 8 9 10 13 13 13 13 13 12 10 12 12 12 12 12 12 12 8 8 9 9 8 8 9 9 9 9 9 9 9 9 9 9 10 9 8 8 8
9 9 8 8 8 8 8 9 12 12 13 12 13 12 12 13 12 12 12 12 12 10 9 10 10 10 10 9 9 10 10 10 9 10 10 10 10 10 11 10 9 9 8
9 11 8 8 8 7 8 9 9 10 10 11 12 11 12 12 12 12 12 10 10 10 10 10 10 10 10 10 10 11 10 10 11 11 12 12 12 12 12 12 11 10 9
9 8 8 8 7 8 8 9 10 10 10 10 9 10 10 12 11 12 11 11 12 12 11 11 10 10 10 10 11 11 11 11 11 12 13 13 13 13 13 12 12 11 11
9 11 10 8 8 8 9 9 10 10 11 10 10 10 9 9 9 10 10 11 11 12 12 11 10 10 10 10 11 11 11 11 12 13 14 14 13 14 14 13 12 11 10
9 9 12 8 8 9 9 9 10 10 10 9 10 11 15 10 9 9 10 10 10 10 11 10 9 9 9 9 9 10 10 10 11 14 15 14 14 14 13 12 11 10 9
8 8 8 8 8 9 9 8 9 9 9 9 9 10 14 8 9 9 9 9 9 9 9 9 9 8 8 9 9 9 10 11 12 13 14 14 13 13 12 11 10 10 9
9 9 8 8 9 12 9 9 10 10 10 9 9 9 9 9 9 9 9 9 9 9 9 8 9 9 8 9 9 9 11 12 12 12 11 11 12 11 11 11 11 10 8
9 9 8 9 9 10 10 11 11 13 10 9 9 9 9 9 9 9 9 9 9 9 9 9 9 9 9 9 10 10 11 12 12 10 10 9 10 9 10 11 10 10 8
9 10 10 9 10 10 10 10 11 11 10 10 10 10 9 9 10 10 10 10 10 9 9 9 9 9 10 10 11 11 13 14 13 13 10 8 6 6 9 10 11 10 10
9 9 9 9 10 10 10 11 11 11 10 10 10 10 10 10 10 10 10 10 10 10 10 9 10 9 11 12 12 13 14 14 13 14 12 6 6 6 6 9 11 11 10